TimeEDT,TemperatureF,Dew PointF,Humidity,Sea Level PressureIn,VisibilityMPH,Wind Direction,Wind SpeedMPH,Gust SpeedMPH,PrecipitationIn,Events,Conditions,WindDirDegrees,DateUTC
12:53 AM,77.0,70.0,79,30.05,10.0,NE,9.2,-,N/A,,Mostly Cloudy,50,2012-09-15 04:53:00
1:28 AM,77.0,71.6,83,30.05,10.0,NNE,6.9,-,N/A,,Overcast,30,2012-09-15 05:28:00
1:53 AM,77.0,72.0,84,30.04,10.0,North,4.6,-,0.00,Rain,Light Rain,360,2012-09-15 05:53:00
2:25 AM,78.8,71.6,78,30.04,10.0,ENE,13.8,20.7,N/A,,Overcast,60,2012-09-15 06:25:00
2:53 AM,77.0,73.0,88,30.04,10.0,East,10.4,-,N/A,,Overcast,90,2012-09-15 06:53:00
3:53 AM,75.9,72.0,87,30.02,10.0,East,6.9,-,N/A,,Clear,100,2012-09-15 07:53:00
4:53 AM,75.9,72.0,87,30.03,10.0,East,3.5,-,N/A,,Partly Cloudy,80,2012-09-15 08:53:00
5:53 AM,75.0,71.1,87,30.04,6.0,East,9.2,-,0.00,Rain,Light Rain,100,2012-09-15 09:53:00
6:53 AM,73.9,72.0,93,30.05,10.0,SSE,5.8,-,0.00,,Mostly Cloudy,150,2012-09-15 10:53:00
7:53 AM,73.9,72.0,93,30.06,10.0,NE,3.5,-,N/A,,Clear,50,2012-09-15 11:53:00
8:53 AM,80.1,73.0,79,30.07,10.0,East,4.6,-,N/A,,Clear,90,2012-09-15 12:53:00
9:53 AM,82.9,73.0,72,30.08,10.0,ENE,8.1,-,N/A,,Scattered Clouds,60,2012-09-15 13:53:00
10:53 AM,84.0,73.9,72,30.08,10.0,East,8.1,-,N/A,,Mostly Cloudy,90,2012-09-15 14:53:00
11:53 AM,84.0,72.0,67,30.08,10.0,East,10.4,-,N/A,,Overcast,100,2012-09-15 15:53:00
12:39 PM,82.4,73.4,74,30.07,10.0,NNE,18.4,-,N/A,,Overcast,30,2012-09-15 16:39:00
12:53 PM,82.9,73.0,72,30.08,10.0,NNE,15.0,-,N/A,,Overcast,30,2012-09-15 16:53:00
1:53 PM,75.9,72.0,87,30.07,10.0,NE,10.4,-,0.02,Rain,Rain,50,2012-09-15 17:53:00
2:53 PM,81.0,72.0,74,30.04,10.0,ENE,4.6,-,0.00,,Overcast,60,2012-09-15 18:53:00
3:53 PM,82.9,73.0,72,30.02,10.0,ENE,6.9,-,N/A,,Overcast,60,2012-09-15 19:53:00
4:53 PM,82.0,72.0,71,30.02,10.0,NE,6.9,-,N/A,,Overcast,50,2012-09-15 20:53:00
5:53 PM,82.0,72.0,71,30.02,10.0,NE,4.6,-,N/A,,Clear,50,2012-09-15 21:53:00
6:53 PM,81.0,71.1,72,30.02,10.0,ENE,5.8,-,N/A,,Clear,70,2012-09-15 22:53:00
7:53 PM,78.1,70.0,76,30.02,10.0,ENE,4.6,-,N/A,,Clear,60,2012-09-15 23:53:00
8:53 PM,78.1,71.1,79,30.03,10.0,ENE,5.8,-,N/A,,Clear,60,2012-09-16 00:53:00
9:53 PM,77.0,70.0,79,30.05,10.0,East,4.6,-,N/A,,Clear,90,2012-09-16 01:53:00
10:53 PM,78.1,71.1,79,30.06,10.0,East,4.6,-,N/A,,Clear,90,2012-09-16 02:53:00
11:53 PM,78.1,72.0,81,30.06,10.0,East,3.5,-,N/A,,Clear,100,2012-09-16 03:53:00